SCP
0 0 0 0 0 0 0 0 0 0 0 0 0 0 0 0 0 0 0 0 0 0 0 0 0 0 0 0 0 0 0 0 0 0 0 0 0 0 0 0 0 0 0
0 0 0 0 0 0 0 0 0 0 0 0 0 0 0 0 0 0 0 0 0 0 0 0 0 0 0 0 0 0 0 0 0 0 0 0 0 0 0 0 0 0 0
0 0 0 0 0 0 0 0 0 0 0 0 0 0 0 0 0 0 0 0 0 0 0 0 0 0 0 0 0 0 0 0 0 0 0 0 0 0 0 0 0 0 0
0 0 0 0 0 0 0 0 0 0 0 0 0 0 0 0 0 0 0 0 0 0 0 0 0 0 0 0 0 0 0 0 0 0 0 0 0 0 0 0 0 0 0
0 0 0 0 0 0 0 0 0 0 0 0 0 0 0 0 0 0 0 0 0 0 0 0 0 0 0 0 0 0 0 0 0 0 0 0 0 0 0 0 0 0 0
0 0 0 0 0 0 0 0 0 0 0 0 0 0 0 0 0 0 0 0 0 0 0 0 0 0 0 0 0 0 0 0 0 0 0 0 0 0 0 0 0 0 0
0 0 0 0 0 0 0 0 0 0 0 0 0 0 0 0 0 0 0 0 0 0 0 0 0 0 0 0 0 0 0 0 0 0 0 0 0 0 0 0 0 0 0
0 0 0 0 0 0 0 0 0 0 0 0 0 0 0 0 0 0 0 0 0 0 0 0 0 0 0 0 0 0 0 0 0 0 0 0 0 0 0 0 0 0 0
0 0 0 0 0 0 0 0 0 0 0 0 0 0 0 0 0 0 0 0 0 0 0 0 0 0 0 0 0 0 0 0 0 0 0 0 0 0 0 0 0 0 0
0 0 0 0 0 0 0 0 0 0 0 0 0 0 0 0 0 0 0 0 0 0 0 0 0 0 0 0 0 0 0 0 0 0 0 0 0 0 0 0 0 0 0
0 0 0 0 0 0 0 0 0 0 0 0 0 0 0 0 0 0 0 0 0 0 0 0 0 0 0 0 0 0 0 0 0 0 0 0 0 0 0 0 0 0 0
0 0 0 0 0 0 0 0 0 0 0 0 0 0 0 0 0 0 0 0 0 0 0 0 0 0 0 0 0 0 0 0 0 0 0 0 0 0 0 0 0 0 0
0 0 0 0 0 0 0 0 0 0 0 0 0 0 0 0 0 0 0 0 0 0 0 0 0 0 0 0 0 0 0 0 0 0 0 0 0 0 0 0 0 0 0
0 0 0 0 0 0 0 0 0 0 0 0 0 0 0 0 0 0 0 0 0 0 0 0 0 0 0 0 0 0 0 0 0 0 0 0 0 0 0 0 0 0 0
0 0 0 0 0 0 0 0 0 0 0 0 0 0 0 0 0 0 0 0 0 0 0 0 0 0 0 0 0 0 0 0 0 0 0 0 0 0 0 0 0 0 0
0 0 0 0 0 0 0 0 0 0 0 0 0 0 0 0 0 0 0 0 0 0 0 0 0 0 0 0 0 0 0 0 0 0 0 0 0 0 0 0 0 0 0
0 0 0 0 0 0 0 0 0 0 0 0 0 0 0 0 0 0 0 0 0 0 0 0 0 0 0 0 0 0 0 0 0 0 0 0 0 0 0 0 0 0 0
0 0 0 0 0 0 0 0 0 0 0 0 0 0 0 0 0 0 0 0 0 0 0 0 0 0 0 0 0 0 0 0 0 0 0 0 0 0 0 0 0 0 0
0 0 0 0 0 0 0 0 0 0 0 0 0 0 0 0 0 0 0 0 0 0 0 0 0 0 0 0 0 0 0 0 0 0 0 0 0 0 0 0 0 0 0
0 0 0 0 0 0 0 0 0 0 0 0 0 0 0 0 0 0 0 0 0 0 0 0 0 0 0 0 0 0 0 0 0 0 0 0 0 0 0 0 0 0 0
0 0 0 0 0 0 0 0 0 0 0 0 0 0 0 0 0 0 0 0 0 0 0 0 0 0 0 0 0 0 0 0 0 0 0 0 0 0 0 0 0 0 0
0 0 0 0 0 0 0 0 0 0 0 0 0 0 0 0 0 0 0 0 0 0 0 0 0 0 0 0 0 0 0 0 0 0 0 0 0 0 0 0 0 0 0
0 0 0 0 0 0 0 0 0 0 0 0 0 0 0 0 0 0 0 0 0 0 0 0 0 0 0 0 0 0 0 0 0 0 0 0 0 0 0 0 0 0 0
0 0 0 0 0 0 0 0 0 0 0 0 0 0 0 0 0 0 0 0 0 0 0 0 0 0 0 0 0 0 0 0 0 0 0 0 0 0 0 0 0 0 0
0 0 0 0 0 0 0 0 0 0 0 0 0 0 0 0 0 0 0 0 0 0 0 0 0 0 0 0 0 0 0 0 0 0 0 0 0 0 0 0 0 0 0
0 0 0 0 0 0 0 0 0 0 0 0 0 0 0 0 0 0 0 0 0 0 0 0 0 0 0 0 0 0 0 0 0 0 0 0 0 0 0 0 0 0 0
Wind_Speed
2 3 7 9 10 11 11 10 10 11 11 11 11 12 12 12 12 12 13 12 12 13 13 13 12 12 12 11 12 11 11 11 10 11 11 10 10 9 9 9 9 6 8
6 5 8 10 10 11 11 10 10 10 10 11 11 11 12 12 12 12 12 12 12 12 12 12 12 11 11 11 11 10 10 9 9 9 9 8 9 8 8 8 7 5 7
7 5 7 9 10 10 10 10 10 10 10 11 11 11 11 11 11 11 12 12 12 12 12 12 11 10 10 10 10 9 9 8 8 8 8 4 5 7 8 8 7 7 7
8 5 6 10 10 10 10 9 9 9 10 10 11 11 11 11 11 11 11 11 11 11 11 11 10 10 9 9 8 8 8 7 8 7 4 3 3 7 8 8 7 7 7
7 5 7 10 10 9 9 9 9 9 9 10 11 11 11 11 10 10 10 10 10 10 10 10 9 9 8 8 7 7 7 7 7 5 3 3 3 6 8 8 7 7 6
6 5 7 11 10 9 9 8 8 9 9 9 10 10 10 10 10 10 10 10 9 9 9 9 9 8 8 7 6 6 6 6 5 3 4 4 3 6 7 7 7 6 6
6 5 6 10 10 9 9 9 9 9 8 8 9 9 9 9 9 9 9 9 9 8 8 8 8 7 7 6 5 5 4 5 4 4 4 3 3 6 7 7 6 6 6
8 5 5 9 9 9 8 9 9 9 8 7 8 8 8 8 8 8 9 9 8 8 8 7 7 7 6 6 5 4 4 4 4 4 4 4 6 7 7 6 6 6 6
7 5 4 4 5 7 8 8 9 8 8 7 7 7 7 7 7 8 8 8 8 7 7 7 7 6 6 6 5 5 4 5 3 2 4 3 7 8 7 7 6 6 6
6 5 3 3 3 2 4 7 7 7 7 7 6 6 6 6 6 7 6 7 7 7 7 7 6 6 6 5 5 5 5 4 3 3 2 5 9 8 8 8 7 6 6
5 3 3 3 3 3 3 5 5 5 5 5 4 4 3 2 2 4 5 6 7 7 7 6 6 5 5 4 4 4 4 2 3 3 3 7 10 9 9 9 8 7 6
5 4 3 3 3 3 3 2 1 2 2 2 1 1 1 1 2 3 5 6 6 6 6 5 5 4 3 1 2 2 1 3 3 3 4 8 10 10 9 8 8 7 7
6 5 4 3 3 2 2 2 1 1 1 1 2 2 1 1 1 1 1 2 2 3 2 2 2 1 1 1 1 1 2 2 2 2 4 8 9 9 9 8 8 7 7
5 5 4 4 3 3 2 2 1 1 1 1 1 2 2 1 1 1 1 1 1 1 1 1 1 1 1 2 2 2 2 2 2 2 3 7 8 8 9 8 8 8 8
5 5 4 4 3 3 3 2 2 1 2 2 1 2 3 2 2 1 1 1 1 1 2 2 1 1 1 2 2 3 3 3 3 2 2 6 7 7 8 8 8 8 8
6 5 4 4 3 3 2 2 1 1 2 2 1 2 3 2 2 2 1 1 1 1 2 2 2 2 1 1 1 2 3 3 3 3 2 3 5 6 6 6 7 7 7
6 5 5 5 4 4 3 2 2 1 2 2 2 2 3 3 3 2 2 1 1 2 2 2 2 2 2 2 1 1 2 2 2 2 2 1 1 4 6 6 6 5 6
6 6 5 5 4 3 3 2 2 1 2 1 2 2 2 3 3 3 2 1 1 2 2 2 2 2 2 1 1 1 1 2 2 2 2 2 1 1 3 4 4 5 5
7 6 5 4 4 4 3 2 2 2 2 2 2 2 2 2 2 2 1 1 1 2 2 3 2 2 2 2 2 1 1 1 2 2 2 3 3 3 2 2 4 4 4
7 6 5 4 4 3 2 2 1 1 1 1 1 2 2 2 2 2 1 1 1 2 2 2 2 2 2 2 2 2 1 1 1 1 2 2 2 3 2 2 1 2 3
7 6 5 5 4 3 2 2 2 1 1 1 1 2 2 2 2 2 1 1 1 2 2 3 3 3 2 2 3 2 1 1 1 1 1 2 1 1 2 2 1 1 1
8 7 6 5 5 4 3 3 2 2 1 1 1 1 2 2 2 3 2 2 2 2 2 2 3 2 1 2 3 2 1 2 2 1 1 2 1 0 1 2 1 1 1
9 8 7 6 5 5 4 2 2 2 1 1 1 0 1 2 2 2 3 2 2 2 2 2 3 3 2 1 2 3 3 2 1 1 0 1 1 0 0 1 1 1 1
10 8 7 6 6 5 5 4 4 3 2 2 2 1 1 1 2 2 2 3 2 2 2 2 2 2 3 2 0 1 2 4 3 0 1 1 1 1 1 0 1 1 1
10 9 7 7 6 5 5 5 5 3 3 1 1 1 1 1 1 2 2 2 2 2 2 2 1 2 2 2 2 1 1 1 2 3 1 1 1 1 1 1 1 1 1
9 9 8 7 6 6 5 5 5 5 4 3 2 2 1 1 1 1 2 2 2 2 2 2 2 2 2 2 2 2 2 2 2 2 2 2 1 2 1 1 1 1 1
Wind_Direction
163 162 133 125 119 116 114 112 111 113 114 113 116 118 120 123 124 125 130 133 134 136 136 136 135 130 128 125 125 127 127 127 130 130 129 128 126 125 124 121 119 114 118
157 152 133 126 124 121 118 115 114 117 120 119 119 121 123 126 128 129 130 133 135 137 138 138 136 135 133 128 126 124 125 130 133 132 129 129 129 131 132 127 126 126 125
144 146 137 131 129 126 123 122 119 119 122 124 124 124 126 128 130 132 133 134 136 138 140 141 141 139 138 135 133 131 134 139 135 133 130 124 132 138 137 135 133 134 134
142 140 139 136 133 129 127 124 122 121 123 127 127 126 126 126 127 131 136 136 135 137 141 143 144 143 141 140 138 139 140 144 142 137 132 135 138 145 147 144 143 142 141
136 143 147 140 136 134 132 128 124 122 123 126 129 130 129 130 130 131 136 138 136 139 143 145 146 146 146 147 146 149 149 150 153 144 134 135 134 148 153 153 151 149 150
138 151 150 144 139 135 133 133 130 127 125 127 133 134 133 134 135 136 137 139 141 144 147 148 150 152 155 157 159 160 166 164 153 138 136 141 148 155 158 160 158 157 155
143 150 150 147 143 138 137 136 135 131 128 130 136 137 136 137 138 139 143 144 145 148 149 153 156 160 165 169 170 174 181 171 152 142 147 152 167 165 161 160 159 154 151
141 142 145 143 140 141 139 136 137 135 131 132 136 142 144 145 145 147 152 154 155 157 157 161 165 169 174 180 183 188 188 176 155 152 154 162 173 167 165 160 158 157 155
136 135 134 140 139 141 142 137 137 137 136 136 135 140 145 150 153 158 161 165 166 165 167 170 174 179 188 194 197 198 193 177 151 161 169 171 175 171 171 168 166 165 164
126 132 132 129 128 139 138 137 139 142 142 142 144 147 151 156 161 165 166 169 171 174 176 178 180 186 195 199 199 200 197 176 163 173 175 183 181 178 178 172 168 169 171
124 128 134 136 133 135 143 148 149 147 146 146 146 152 157 157 158 165 175 177 180 185 186 189 190 195 201 204 203 203 197 163 165 177 180 187 186 187 184 177 175 177 177
141 148 150 143 139 151 155 142 141 127 122 121 125 140 129 130 153 164 174 182 188 193 196 196 197 201 206 189 207 208 189 163 164 178 184 188 192 190 187 184 180 183 182
151 146 147 149 148 146 137 130 132 114 118 128 145 152 128 117 126 134 146 174 187 192 189 184 194 194 173 165 171 176 172 163 165 185 187 191 191 186 185 183 181 182 183
141 144 152 150 138 135 135 138 146 137 140 152 164 155 136 123 123 142 156 172 175 176 166 159 170 165 151 165 176 174 170 162 165 184 187 188 190 186 186 187 184 184 186
146 152 156 139 133 134 128 151 152 165 161 161 161 160 150 144 149 151 164 164 178 164 168 166 161 149 150 167 172 158 165 155 158 171 173 176 181 184 187 188 186 188 188
156 157 152 138 141 134 136 156 159 174 166 152 148 156 152 154 154 152 167 175 179 176 180 177 170 163 160 151 148 151 160 155 151 160 164 172 177 180 185 185 185 189 190
157 153 149 148 141 138 146 158 140 154 140 144 154 156 149 147 151 147 154 172 187 175 171 162 150 136 129 124 129 144 152 159 154 154 152 154 169 171 177 179 183 182 184
151 149 155 152 142 140 140 135 126 125 125 141 146 142 147 151 151 143 150 176 184 164 159 153 144 134 131 132 136 145 140 139 146 161 150 155 152 172 179 178 184 186 187
155 153 151 145 147 149 140 131 129 124 120 127 129 133 147 144 145 144 163 189 170 149 148 153 140 143 142 142 144 134 122 130 152 159 150 155 160 171 179 181 187 190 191
155 152 151 147 152 151 132 105 90 88 104 114 132 148 151 148 149 143 155 165 135 133 135 136 140 140 145 151 134 102 91 137 128 129 148 148 156 169 176 191 203 205 200
153 153 157 153 161 149 138 134 137 150 165 141 163 166 160 157 156 147 136 138 135 139 149 142 133 130 130 123 104 67 22 37 75 97 118 124 141 165 164 181 203 220 225
165 166 163 164 165 164 165 164 166 162 172 169 171 164 177 170 163 157 148 153 149 135 127 136 133 130 150 138 128 112 51 5 1 41 95 128 134 125 161 172 186 198 217
170 172 171 173 168 170 161 137 117 80 53 51 62 168 212 180 173 163 158 155 148 145 159 171 163 153 164 185 151 143 143 190 293 334 330 128 134 114 215 187 177 195 188
179 174 170 170 169 171 159 146 148 151 165 198 193 194 201 180 175 166 157 158 160 157 161 176 166 161 155 173 248 173 160 158 152 197 324 292 203 203 239 209 176 198 188
178 173 171 168 169 172 166 165 159 160 178 178 166 168 192 212 185 172 169 158 164 165 173 173 152 156 163 170 174 157 113 103 130 145 197 260 314 292 254 206 189 190 190
177 174 172 171 178 178 173 174 171 166 166 160 172 184 209 217 212 198 180 167 174 173 179 184 178 168 177 173 172 166 162 165 173 158 171 194 229 268 271 239 204 207 206